TimeEEST,TemperatureF,Dew PointF,Humidity,Sea Level PressureIn,VisibilityMPH,Wind Direction,Wind SpeedMPH,Gust SpeedMPH,PrecipitationIn,Events,Conditions,WindDirDegrees,DateUTC
12:50 AM,66.2,59.0,78,29.95,6.2,Calm,Calm,-,N/A,,Scattered Clouds,0,2012-10-11 21:50:00
1:50 AM,64.4,59.0,83,29.95,6.2,Calm,Calm,-,N/A,,Partly Cloudy,0,2012-10-11 22:50:00
2:50 AM,64.4,59.0,83,29.95,6.2,North,6.9,-,N/A,,Partly Cloudy,350,2012-10-11 23:50:00
3:50 AM,62.6,59.0,88,29.95,6.2,Calm,Calm,-,N/A,,Partly Cloudy,0,2012-10-12 00:50:00
4:50 AM,64.4,59.0,83,29.95,6.2,Calm,Calm,-,N/A,,Partly Cloudy,0,2012-10-12 01:50:00
5:50 AM,64.4,59.0,83,29.95,6.2,North,5.8,-,N/A,,Mostly Cloudy,360,2012-10-12 02:50:00
6:20 AM,64.4,59.0,83,29.95,6.2,Calm,Calm,-,N/A,,Partly Cloudy,0,2012-10-12 03:20:00
6:50 AM,64.4,59.0,83,29.95,6.2,NNW,4.6,-,N/A,,Partly Cloudy,340,2012-10-12 03:50:00
8:20 AM,66.2,59.0,78,29.98,6.2,Variable,3.5,-,N/A,,Mostly Cloudy,0,2012-10-12 05:20:00
8:50 AM,68.0,60.8,78,29.98,5.6,Variable,3.5,-,N/A,,Mostly Cloudy,0,2012-10-12 05:50:00
9:20 AM,69.8,60.8,73,29.98,6.2,Variable,3.5,-,N/A,,Scattered Clouds,0,2012-10-12 06:20:00
9:50 AM,69.8,60.8,73,29.98,6.2,Calm,Calm,-,N/A,,Scattered Clouds,0,2012-10-12 06:50:00
10:20 AM,75.2,60.8,61,29.98,6.2,Variable,1.2,-,N/A,,Scattered Clouds,0,2012-10-12 07:20:00
10:50 AM,75.2,62.6,65,30.01,6.2,SSE,5.8,-,N/A,,Scattered Clouds,160,2012-10-12 07:50:00
11:20 AM,75.2,62.6,65,30.01,6.2,SSE,6.9,-,N/A,,Scattered Clouds,150,2012-10-12 08:20:00
11:50 AM,75.2,62.6,65,30.01,6.2,South,8.1,-,N/A,,Scattered Clouds,180,2012-10-12 08:50:00
12:20 PM,75.2,62.6,65,30.01,6.2,South,6.9,-,N/A,,Scattered Clouds,170,2012-10-12 09:20:00
12:50 PM,77.0,62.6,61,30.01,6.2,South,8.1,-,N/A,,Scattered Clouds,170,2012-10-12 09:50:00
1:20 PM,77.0,62.6,61,30.01,6.2,South,6.9,-,N/A,,Scattered Clouds,180,2012-10-12 10:20:00
1:50 PM,78.8,62.6,57,29.98,6.2,South,8.1,-,N/A,,Mostly Cloudy,180,2012-10-12 10:50:00
2:20 PM,77.0,62.6,61,29.98,6.2,South,10.4,-,N/A,,Mostly Cloudy,180,2012-10-12 11:20:00
2:50 PM,77.0,62.6,61,29.98,6.2,South,10.4,-,N/A,,Mostly Cloudy,180,2012-10-12 11:50:00
3:20 PM,77.0,62.6,61,29.98,6.2,South,9.2,-,N/A,,Mostly Cloudy,170,2012-10-12 12:20:00
3:50 PM,77.0,62.6,61,29.98,6.2,South,9.2,-,N/A,,Mostly Cloudy,170,2012-10-12 12:50:00
4:20 PM,77.0,62.6,61,29.98,6.2,South,10.4,-,N/A,,Mostly Cloudy,170,2012-10-12 13:20:00
4:50 PM,77.0,64.4,65,29.98,6.2,SSE,9.2,-,N/A,,Mostly Cloudy,160,2012-10-12 13:50:00
5:20 PM,75.2,64.4,69,29.98,6.2,SSE,9.2,-,N/A,,Mostly Cloudy,160,2012-10-12 14:20:00
5:50 PM,75.2,64.4,69,29.98,6.2,South,9.2,-,N/A,,Scattered Clouds,170,2012-10-12 14:50:00
6:20 PM,73.4,64.4,73,29.98,6.2,South,8.1,-,N/A,,Scattered Clouds,170,2012-10-12 15:20:00
6:50 PM,73.4,64.4,73,29.98,6.2,South,6.9,-,N/A,,Scattered Clouds,170,2012-10-12 15:50:00
7:20 PM,73.4,64.4,73,29.98,6.2,SE,5.8,-,N/A,,Scattered Clouds,140,2012-10-12 16:20:00
7:50 PM,73.4,64.4,73,29.98,6.2,SE,4.6,-,N/A,,Scattered Clouds,140,2012-10-12 16:50:00
8:20 PM,73.4,64.4,73,29.98,6.2,SE,4.6,-,N/A,,Partly Cloudy,140,2012-10-12 17:20:00
8:50 PM,73.4,64.4,73,29.98,6.2,SE,4.6,-,N/A,,Scattered Clouds,140,2012-10-12 17:50:00
9:20 PM,73.4,64.4,73,29.98,6.2,SE,4.6,-,N/A,,Scattered Clouds,140,2012-10-12 18:20:00
9:50 PM,73.4,64.4,73,29.98,6.2,Calm,Calm,-,N/A,,Scattered Clouds,0,2012-10-12 18:50:00
10:20 PM,73.4,64.4,73,29.98,6.2,Calm,Calm,-,N/A,,Scattered Clouds,0,2012-10-12 19:20:00
10:50 PM,71.6,64.4,78,29.98,6.2,Calm,Calm,-,N/A,,Scattered Clouds,0,2012-10-12 19:50:00
11:20 PM,73.4,64.4,73,29.98,6.2,Calm,Calm,-,N/A,,Mostly Cloudy,0,2012-10-12 20:20:00
11:50 PM,71.6,64.4,78,29.98,6.2,Calm,Calm,-,N/A,,Scattered Clouds,0,2012-10-12 20:50:00